Location: Charlottesville
(38.0290°N, 78.4770°W)
Time: 12:31:35
(UTC-04:00)

Vanguard 1 - All Passes

Search period start: 21 June 2018 00:00
Search period end: 01 July 2018 00:00
Orbit: 650 x 3833 km, 34.3° (Epoch: 20 June)

Date Brightness Start Highest point End Pass type
(mag) Time Alt. Az. Time Alt. Az. Time Alt. Az.
21 Jun - 05:40:21 10° SSW 05:47:55 33° SE 06:00:24 10° E daylight
21 Jun - 07:58:04 10° WSW 08:09:09 70° SSE 08:29:18 10° E daylight
21 Jun - 10:18:38 10° W 10:34:04 78° S 10:57:37 10° ESE daylight
21 Jun - 12:41:14 10° W 13:00:20 58° SSW 13:22:36 10° SE daylight
21 Jun - 15:07:54 10° W 15:24:54 28° SW 15:41:08 10° S daylight
22 Jun - 06:00:20 10° SSW 06:08:21 42° SE 06:22:25 10° E daylight
22 Jun - 08:18:51 10° WSW 08:30:21 75° S 08:51:06 10° E daylight
22 Jun - 10:39:43 10° W 10:55:33 74° SSW 11:19:06 10° ESE daylight
22 Jun - 13:02:39 10° W 13:21:32 50° SSW 13:43:00 10° SE daylight
22 Jun - 15:31:19 10° W 15:45:32 21° SW 15:59:11 10° S daylight
23 Jun - 04:06:40 10° SSE 04:09:57 13° SE 04:13:57 10° ESE visible
23 Jun - 06:20:36 10° SW 06:28:58 51° SSE 06:44:17 10° E daylight
23 Jun - 08:39:43 10° WSW 08:51:37 77° S 09:12:53 10° E daylight
23 Jun - 11:00:49 10° W 11:17:00 69° SSW 11:40:23 10° ESE daylight
23 Jun - 13:24:17 10° W 13:42:36 42° SW 14:03:01 10° SSE daylight
23 Jun - 15:56:48 10° WSW 16:06:08 14° SW 16:15:15 10° SSW daylight
24 Jun - 04:24:58 10° S 04:30:06 20° SE 04:37:24 10° E visible
24 Jun - 06:41:05 10° SW 06:49:46 60° SSE 07:06:03 10° E daylight
24 Jun - 09:00:39 10° W 09:12:58 78° S 09:34:39 10° E daylight
24 Jun - 11:21:57 10° W 11:38:23 63° SSW 12:01:26 10° SE daylight
24 Jun - 13:46:12 10° W 14:03:34 34° SW 14:22:34 10° SSE daylight
25 Jun - 04:44:24 10° SSW 04:50:21 28° SE 04:59:45 10° E visible
25 Jun - 07:01:43 10° WSW 07:10:43 68° SSE 07:27:49 10° E daylight
25 Jun - 09:21:36 10° W 09:34:20 76° S 09:56:19 10° ESE daylight
25 Jun - 11:43:11 10° W 11:59:42 56° SSW 12:22:12 10° SE daylight
25 Jun - 14:08:38 10° W 14:24:29 27° SW 14:41:30 10° S daylight
26 Jun - 05:04:20 10° SSW 05:10:46 37° SE 05:21:42 10° E visible
26 Jun - 07:22:28 10° WSW 07:31:47 73° S 07:49:35 10° E daylight
26 Jun - 09:42:35 10° W 09:55:43 72° SSW 10:17:51 10° ESE daylight
26 Jun - 12:04:31 10° W 12:20:56 48° SSW 12:42:37 10° SE daylight
26 Jun - 14:32:00 10° W 14:45:20 20° SW 14:59:25 10° S daylight
27 Jun - 05:24:35 10° SW 05:31:20 47° SSE 05:43:27 10° E daylight
27 Jun - 07:43:17 10° W 07:52:57 76° S 08:11:21 10° E daylight
27 Jun - 10:03:36 10° W 10:17:04 67° SSW 10:39:11 10° ESE daylight
27 Jun - 12:26:03 10° W 12:42:06 40° SW 13:02:37 10° SSE daylight
27 Jun - 14:57:30 10° WSW 15:06:11 13° SW 15:15:10 10° SSW daylight
28 Jun - 03:29:21 10° S 03:32:56 16° SE 03:37:31 10° E visible
28 Jun - 05:45:03 10° SW 05:52:05 57° SSE 06:05:08 10° E daylight
28 Jun - 08:04:09 10° W 08:14:11 76° S 08:33:06 10° E daylight
28 Jun - 10:24:40 10° W 10:38:23 60° SSW 11:00:16 10° SE daylight
28 Jun - 12:47:55 10° W 13:03:12 32° SW 13:22:07 10° SSE daylight
29 Jun - 03:48:36 10° S 03:53:13 23° SE 03:59:57 10° E visible
29 Jun - 06:05:40 10° WSW 06:12:57 65° SSE 06:26:47 10° E daylight
29 Jun - 08:25:02 10° W 08:35:25 73° S 08:54:45 10° ESE daylight
29 Jun - 10:45:49 10° W 10:59:40 52° SSW 11:21:03 10° SE daylight
29 Jun - 13:10:19 10° W 13:24:17 25° SW 13:40:55 10° S daylight
30 Jun - 04:08:29 10° SSW 04:13:39 32° SE 04:21:48 10° E visible
30 Jun - 06:26:22 10° WSW 06:33:56 71° S 06:48:27 10° E daylight
30 Jun - 08:45:58 10° W 08:56:40 69° SSW 09:16:17 10° ESE daylight
30 Jun - 11:07:06 10° W 11:20:55 45° SSW 11:41:28 10° SE daylight
30 Jun - 13:33:44 10° WSW 13:45:20 18° SW 13:58:35 10° S daylight
